Date String (YYYY-MM-DD hh:mm:ss) UTC,Instrument flags,Ambient pressure (hPa),Sample flow (lpm),Bypass flow (lpm),Sample temperature (°C),Ambient temperature (°C),ASC tube jacket temperature (°C),LED temperature (°C),Box temperature (°C),Sample RH (%),Span deviation,Mass concentration (μg/m³),Mass concentration (μg/m³),Mass concentration (μg/m³)
DateTimeUTC,F1_M11,P_M11,Q1_M11,Q2_M11,T1_M11,T2_M11,T3_M11,T4_M11,T5_M11,U1_M11,ZSPAN_M11,X0_M11,X2_M11,X1_M11
2022-05-07 20:00:00,,0811.9,5.01,0.00,29.4,26.3,00.0,38.2,30.8,12.7,0000.0,0009.52,0002.94,0001.49
2022-05-07 20:01:00,,0811.9,4.99,0.00,29.2,25.3,00.0,38.1,30.6,12.5,0000.0,0010.09,0002.91,0001.50
2022-05-07 20:02:00,,0811.9,5.01,0.00,29.1,25.7,00.0,38.1,30.7,12.6,0000.0,0010.03,0002.94,0001.53
2022-05-07 20:03:00,,0811.9,5.00,0.00,29.1,26.2,00.0,38.1,30.7,12.7,0000.0,0009.78,0002.94,0001.56
2022-05-07 20:04:00,,0811.9,5.00,0.00,29.1,26.6,00.0,38.0,30.8,12.8,0000.0,0011.01,0003.07,0001.59
2022-05-07 20:05:00,,0811.9,4.99,0.00,29.1,27.1,00.0,38.0,30.9,12.4,0000.0,0011.11,0003.09,0001.63
2022-05-07 20:06:00,,0811.9,5.00,0.00,29.2,27.4,00.0,38.0,31.0,11.9,0000.0,0010.86,0003.12,0001.68
2022-05-07 20:07:00,,0811.9,5.01,0.00,29.2,27.7,00.0,38.0,31.1,12.2,0000.0,0010.04,0003.12,0001.73
2022-05-07 20:08:00,,0811.8,5.00,0.00,29.3,28.0,00.0,38.0,31.1,12.1,0000.0,0009.84,0003.20,0001.75
2022-05-07 20:09:00,,0811.9,5.00,0.00,29.3,28.2,00.0,38.1,31.2,12.3,0000.0,0009.14,0003.18,0001.76
2022-05-07 20:10:00,,0811.9,5.00,0.00,29.4,28.3,00.0,38.1,31.3,12.3,0000.0,0008.99,0003.16,0001.78
2022-05-07 20:11:00,,0811.9,5.01,0.00,29.4,28.5,00.0,38.1,31.3,11.7,0000.0,0008.94,0003.20,0001.80
2022-05-07 20:12:00,,0811.7,5.00,0.00,29.5,28.5,00.0,38.2,31.3,11.7,0000.0,0008.41,0003.21,0001.80
2022-05-07 20:13:00,,0811.6,4.99,0.00,29.4,27.0,00.0,38.2,31.1,11.5,0000.0,0008.28,0003.25,0001.82
2022-05-07 20:14:00,,0811.5,5.01,0.00,29.3,25.3,00.0,38.2,30.7,12.0,0000.0,0008.38,0003.28,0001.82
2022-05-07 20:15:00,,0811.5,5.00,0.00,29.2,25.5,00.0,38.1,30.7,10.9,0000.0,0007.19,0003.25,0001.81
2022-05-07 20:16:00,,0811.7,5.00,0.00,29.1,25.9,00.0,38.1,30.7,10.6,0000.0,0007.96,0003.21,0001.78
2022-05-07 20:17:00,,0811.6,5.00,0.00,29.1,26.4,00.0,38.1,30.8,10.5,0000.0,0008.65,0003.17,0001.72
2022-05-07 20:18:00,,0811.7,5.00,0.00,29.1,26.9,00.0,38.1,30.9,10.2,0000.0,0008.93,0003.15,0001.68
2022-05-07 20:19:00,,0811.8,5.01,0.00,29.2,27.3,00.0,38.1,31.0,10.5,0000.0,0008.74,0003.03,0001.62
2022-05-07 20:20:00,,0811.7,5.01,0.00,29.2,27.6,00.0,38.1,31.1,11.4,0000.0,0008.54,0002.93,0001.58
2022-05-07 20:21:00,,0811.6,5.01,0.00,29.3,27.9,00.0,38.1,31.1,11.2,0000.0,0008.42,0002.81,0001.52
2022-05-07 20:22:00,,0811.5,5.00,0.00,29.3,28.1,00.0,38.1,31.2,10.9,0000.0,0008.37,0002.71,0001.48
2022-05-07 20:23:00,,0811.4,4.99,0.00,29.4,28.3,00.0,38.1,31.3,10.7,0000.0,0008.34,0002.68,0001.45
2022-05-07 20:24:00,,0811.5,4.99,0.00,29.4,28.4,00.0,38.1,31.3,10.8,0000.0,0008.19,0002.56,0001.40
2022-05-07 20:25:00,,0811.6,5.00,0.00,29.4,27.4,00.0,38.2,31.1,11.8,0000.0,0008.39,0002.50,0001.36
2022-05-07 20:26:00,,0811.5,5.01,0.00,29.3,25.5,00.0,38.1,30.7,11.9,0000.0,0008.59,0002.44,0001.34
2022-05-07 20:27:00,,0811.4,5.00,0.00,29.2,25.3,00.0,38.1,30.6,11.8,0000.0,0007.83,0002.46,0001.34
2022-05-07 20:28:00,,0811.4,5.00,0.00,29.1,25.8,00.0,38.1,30.7,11.7,0000.0,0006.92,0002.48,0001.34
2022-05-07 20:29:00,,0811.4,5.00,0.00,29.1,26.3,00.0,38.1,30.8,11.4,0000.0,0006.45,0002.41,0001.33
2022-05-07 20:30:00,,0811.4,5.00,0.00,29.1,26.8,00.0,38.0,30.8,11.4,0000.0,0006.47,0002.41,0001.32
2022-05-07 20:31:00,,0811.3,5.00,0.00,29.2,27.2,00.0,38.0,30.9,11.4,0000.0,0006.59,0002.44,0001.31
2022-05-07 20:32:00,,0811.4,5.00,0.00,29.2,27.5,00.0,38.0,31.0,11.4,0000.0,0006.46,0002.43,0001.30
2022-05-07 20:33:00,,0811.4,5.00,0.00,29.2,27.8,00.0,38.0,31.1,12.1,0000.0,0006.37,0002.44,0001.32
2022-05-07 20:34:00,,0811.4,5.01,0.00,29.3,28.1,00.0,38.1,31.2,12.4,0000.0,0008.12,0002.53,0001.36
2022-05-07 20:35:00,,0811.5,5.00,0.00,29.3,28.3,00.0,38.1,31.2,12.4,0000.0,0008.38,0002.61,0001.40
2022-05-07 20:36:00,,0811.5,4.99,0.00,29.4,28.4,00.0,38.1,31.3,12.3,0000.0,0008.81,0002.67,0001.44
2022-05-07 20:37:00,,0811.5,5.00,0.00,29.4,28.0,00.0,38.1,31.2,12.2,0000.0,0008.79,0002.73,0001.46
2022-05-07 20:38:00,,0811.4,5.00,0.00,29.3,26.0,00.0,38.1,30.8,12.8,0000.0,0009.16,0002.89,0001.50
2022-05-07 20:39:00,,0811.5,5.01,0.00,29.2,25.5,00.0,38.1,30.7,11.5,0000.0,0009.14,0002.92,0001.51
2022-05-07 20:40:00,,0811.5,5.00,0.00,29.2,25.9,00.0,38.1,30.8,11.0,0000.0,0009.10,0002.90,0001.49
2022-05-07 20:41:00,,0811.5,4.98,0.00,29.1,26.3,00.0,38.1,30.8,10.4,0000.0,0009.13,0002.88,0001.51
2022-05-07 20:42:00,,0811.5,5.00,0.00,29.2,26.8,00.0,38.1,30.9,10.3,0000.0,0009.05,0002.83,0001.51
2022-05-07 20:43:00,,0811.5,5.00,0.00,29.2,27.2,00.0,38.0,31.0,09.4,0000.0,0009.00,0002.83,0001.50
2022-05-07 20:44:00,,0811.5,5.01,0.00,29.2,27.6,00.0,38.0,31.1,09.7,0000.0,0008.97,0002.80,0001.46
2022-05-07 20:45:00,,0811.4,5.00,0.00,29.3,27.9,00.0,38.1,31.2,09.6,0000.0,0007.73,0002.68,0001.40
2022-05-07 20:46:00,,0811.4,4.99,0.00,29.3,28.1,00.0,38.1,31.2,09.6,0000.0,0007.13,0002.52,0001.34
2022-05-07 20:47:00,,0811.4,5.00,0.00,29.4,28.3,00.0,38.1,31.3,09.9,0000.0,0005.98,0002.41,0001.29
2022-05-07 20:48:00,,0811.4,5.01,0.00,29.4,28.5,00.0,38.1,31.4,10.5,0000.0,0004.99,0002.30,0001.24
2022-05-07 20:49:00,,0811.3,5.00,0.00,29.4,27.5,00.0,38.2,31.1,09.7,0000.0,0004.67,0002.11,0001.20
2022-05-07 20:50:00,,0811.3,5.00,0.00,29.3,25.6,00.0,38.1,30.8,10.1,0000.0,0004.70,0001.98,0001.16
2022-05-07 20:51:00,,0811.2,5.00,0.00,29.2,25.4,00.0,38.1,30.7,09.5,0000.0,0004.60,0001.96,0001.16
2022-05-07 20:52:00,,0811.2,5.00,0.00,29.2,25.9,00.0,38.1,30.8,10.2,0000.0,0004.63,0001.99,0001.14
2022-05-07 20:53:00,,0811.1,5.00,0.00,29.1,26.4,00.0,38.1,30.8,10.1,0000.0,0004.66,0002.02,0001.13
2022-05-07 20:54:00,,0811.2,4.99,0.00,29.1,26.9,00.0,38.0,30.9,10.1,0000.0,0004.64,0001.99,0001.12
2022-05-07 20:55:00,,0811.3,5.00,0.00,29.2,27.3,00.0,38.0,31.0,10.5,0000.0,0004.69,0001.95,0001.11
2022-05-07 20:56:00,,0811.3,5.00,0.00,29.2,27.6,00.0,38.0,31.0,10.0,0000.0,0004.82,0001.97,0001.12
2022-05-07 20:57:00,,0811.2,5.00,0.00,29.3,27.9,00.0,38.1,31.1,09.4,0000.0,0005.50,0002.01,0001.11
2022-05-07 20:58:00,,0811.1,5.00,0.00,29.3,28.1,00.0,38.1,31.2,09.9,0000.0,0005.66,0002.01,0001.10
2022-05-07 20:59:00,,0811.2,4.99,0.00,29.4,28.3,00.0,38.1,31.3,10.3,0000.0,0006.04,0001.99,0001.10
